SCP
0 0 0 0 0 0 0 0 1 1 1 1 1 1 2 2 2 1 1 2 3 3 3 3 4 3 3 4 4 5 7 8 9 8 9 10 9 9 7 6 5 4 4 3
0 0 0 0 0 0 0 0 0 1 1 1 1 1 2 2 2 1 1 2 3 3 3 3 3 3 4 4 5 5 7 8 9 9 10 10 10 9 8 6 4 4 3 3
0 0 0 0 0 0 0 0 0 0 0 0 1 1 1 2 2 1 1 2 3 4 4 3 3 3 3 4 5 5 7 8 9 10 10 10 10 9 8 6 4 4 3 3
0 0 0 0 0 0 0 0 0 0 0 0 0 1 1 1 1 1 1 1 3 4 4 3 2 2 3 3 4 4 6 8 10 11 11 11 10 9 7 6 5 4 3 3
0 0 0 0 0 0 0 0 0 0 0 0 0 0 1 1 1 1 1 1 2 4 4 3 2 2 2 2 3 4 5 7 9 11 12 12 10 8 7 6 5 4 3 3
0 0 0 0 0 0 0 0 0 0 0 0 0 0 1 1 1 1 1 1 3 4 4 2 2 2 2 2 3 4 4 5 7 9 10 10 8 7 7 7 6 4 3 3
0 0 0 0 0 0 0 0 0 0 0 0 0 0 1 1 1 1 1 1 3 4 3 2 2 1 2 2 3 4 4 4 6 7 7 6 5 5 6 6 5 4 3 3
0 0 0 0 0 0 0 0 0 0 0 0 0 0 1 1 1 1 1 2 2 3 2 2 1 2 2 2 4 4 4 3 4 6 6 5 4 4 5 5 5 4 3 3
0 0 0 0 0 0 0 0 0 0 0 0 0 0 1 1 1 1 2 2 2 2 2 2 2 2 2 2 3 4 3 3 3 4 5 4 3 3 4 4 4 3 3 2
0 0 0 0 0 0 0 0 0 0 0 0 0 0 1 1 1 1 1 2 2 2 2 2 2 2 2 3 3 3 3 3 3 4 5 4 3 2 3 3 3 2 2 2
0 0 0 0 0 0 0 0 0 0 0 0 0 0 1 1 1 1 1 2 2 3 2 2 2 3 3 3 3 3 3 3 3 3 4 3 2 2 2 2 2 2 1 1
0 0 0 0 0 0 0 0 0 0 0 0 0 0 0 1 1 1 1 1 2 3 3 2 3 3 3 3 2 2 2 2 3 3 3 3 2 2 2 2 2 1 1 1
0 0 0 0 0 0 0 0 0 1 0 0 0 0 0 1 1 1 1 1 2 3 3 2 3 3 3 2 2 1 1 1 2 3 3 2 2 2 2 2 1 1 1 1
0 0 0 0 0 0 0 0 0 0 0 0 0 0 0 1 1 1 1 1 2 3 3 2 2 2 2 2 1 1 1 1 1 2 2 2 2 2 1 1 1 1 1 1
0 0 0 0 0 0 0 0 0 0 0 0 0 0 0 1 1 1 1 2 2 3 2 2 2 2 2 2 1 1 1 1 1 2 2 2 2 1 1 1 1 2 2 1
0 0 0 0 0 0 0 0 0 0 0 0 0 0 0 1 1 1 1 2 3 2 2 2 2 1 2 2 1 1 1 1 2 1 1 1 1 1 1 1 1 2 2 1
0 0 0 0 0 0 0 0 0 0 0 0 1 0 0 1 1 1 2 2 2 2 1 1 1 1 1 1 1 1 1 2 2 2 1 1 1 1 1 1 2 2 2 1
0 0 0 0 0 0 0 0 1 1 1 1 1 1 1 1 1 1 2 1 1 1 1 1 1 1 1 1 1 1 2 2 2 2 1 1 1 1 1 1 2 2 2 1
1 0 0 0 0 0 0 1 1 1 1 1 2 1 1 1 1 1 1 1 1 1 1 1 1 1 1 1 1 1 2 2 2 1 1 1 1 1 1 1 1 2 2 1
0 0 0 0 0 0 0 1 1 1 1 1 2 1 1 1 1 1 1 1 0 0 0 1 1 1 1 1 1 1 1 1 1 1 1 1 1 1 1 1 1 1 1 1
0 0 0 0 0 0 0 1 1 1 1 1 1 1 1 1 1 1 1 0 0 0 0 0 0 1 1 1 1 1 1 1 1 1 1 1 1 1 1 1 1 1 1 1
0 0 0 0 0 0 1 1 1 0 1 1 1 1 1 1 0 0 0 0 1 1 0 0 0 1 1 1 1 1 0 0 0 1 1 1 1 1 1 1 1 1 1 1
0 0 0 0 0 1 1 1 0 0 0 0 0 1 1 0 0 0 0 0 1 0 0 0 0 1 1 1 1 0 0 0 0 1 1 1 1 1 1 1 1 1 1 1
0 0 0 0 0 0 0 1 0 0 0 0 0 0 0 0 0 0 0 0 0 0 0 0 0 1 1 1 0 0 0 0 0 0 1 1 1 1 1 1 1 1 1 1
0 0 0 0 0 0 0 0 0 0 0 0 0 0 0 0 0 0 0 0 0 0 0 0 0 0 0 0 0 0 0 0 0 0 1 1 1 1 1 1 1 1 0 0
0 0 0 0 0 0 0 0 0 0 0 0 0 0 0 0 0 0 0 0 0 0 0 0 0 0 0 0 0 0 0 0 0 0 1 1 1 1 1 1 0 0 0 0
Wind_Speed
5 7 4 2 4 4 4 5 4 2 1 4 5 5 4 3 4 4 4 5 5 5 5 5 6 7 7 8 7 7 7 7 6 5 5 4 4 3 3 2 2 2 1 1
7 5 1 2 4 6 6 7 5 2 1 4 5 7 4 4 6 4 4 4 4 4 5 5 6 6 7 7 8 8 7 7 7 5 4 3 3 2 2 2 2 2 2 2
4 2 1 4 5 6 7 7 4 3 3 6 7 8 6 5 5 4 4 3 3 4 5 6 6 6 6 6 7 6 7 7 7 6 5 4 4 3 3 3 3 2 3 2
4 1 3 5 5 6 6 3 4 5 7 6 6 7 5 6 5 5 4 3 3 4 5 5 6 6 6 6 6 6 6 6 7 7 6 6 4 4 3 2 2 2 3 3
3 3 5 5 4 5 4 3 6 7 8 9 8 9 4 6 5 5 5 4 4 4 4 5 5 5 5 5 5 5 5 5 6 7 7 6 5 3 2 2 3 3 3 3
4 3 4 4 3 3 3 5 7 9 9 9 5 7 4 3 3 2 3 3 3 3 4 4 4 4 4 4 4 5 6 5 5 6 6 6 5 4 3 3 3 3 2 2
3 4 3 2 3 4 6 7 6 7 7 4 1 6 2 3 2 1 1 2 3 3 3 3 3 4 4 4 4 4 5 5 5 5 5 5 5 5 5 4 3 2 2 2
4 2 2 1 5 5 5 8 7 7 6 5 4 5 2 4 3 2 1 2 2 3 3 3 3 3 4 4 4 4 4 4 5 5 5 4 5 5 3 3 2 2 2 1
6 3 1 3 5 7 6 6 7 9 9 8 5 3 3 3 2 2 2 2 2 2 2 2 3 3 4 4 4 5 4 4 4 4 5 5 4 4 3 3 3 2 1 2
6 7 4 3 5 3 6 6 6 7 7 7 6 4 2 2 2 2 2 2 2 1 1 1 2 3 3 3 4 4 4 4 4 4 4 4 4 4 3 3 3 2 2 2
6 6 5 5 5 5 4 4 6 6 7 8 6 3 6 4 2 1 2 2 1 1 1 2 2 2 2 3 3 4 4 4 3 3 4 4 4 3 4 4 4 3 3 3
5 6 6 5 3 4 5 6 6 6 6 7 7 3 5 4 2 1 1 1 0 2 2 2 2 2 3 3 3 3 3 3 3 3 3 3 3 3 3 3 3 3 3 3
6 6 7 5 4 3 3 4 6 7 7 7 7 2 4 3 2 1 1 1 1 2 2 2 2 2 2 2 3 3 3 3 3 2 3 3 3 3 3 3 3 2 3 3
7 6 8 8 8 8 8 7 7 8 8 8 8 8 4 4 4 2 1 1 1 2 2 2 2 2 2 2 2 3 3 3 3 2 2 2 2 3 3 3 2 3 3 4
6 7 7 9 10 10 10 10 10 10 10 10 10 10 7 6 5 3 1 1 1 2 2 2 2 1 1 2 2 2 2 2 3 3 3 2 2 3 3 3 3 3 3 4
5 7 8 9 9 9 10 9 9 9 8 9 10 8 5 4 3 2 1 2 2 2 2 2 1 1 1 1 2 2 2 2 3 3 3 2 2 2 2 3 3 3 3 4
5 6 7 8 8 9 7 5 6 6 6 7 8 6 6 4 4 3 2 2 2 2 2 2 2 2 2 2 2 2 2 2 3 3 3 2 2 2 3 3 2 3 3 4
7 7 6 7 7 6 2 3 5 5 4 5 5 6 6 5 4 2 2 2 1 1 2 2 2 2 2 2 2 2 2 3 3 3 3 2 2 3 3 3 3 3 3 4
7 6 6 6 7 5 1 3 6 6 3 5 6 7 6 5 3 0 2 2 1 1 2 2 2 3 3 3 3 2 3 3 3 2 2 2 2 3 3 3 3 3 3 4
4 6 6 6 7 4 5 7 8 7 2 7 9 8 7 6 5 3 3 2 1 1 2 2 2 3 3 3 3 3 3 3 3 2 2 1 2 3 3 3 4 4 3 4
3 4 6 7 6 3 6 8 6 4 6 9 9 9 7 6 6 4 3 1 0 1 2 3 3 3 2 3 3 3 3 3 2 2 2 2 2 3 3 3 3 4 4 4
6 5 4 5 5 1 8 7 6 7 8 8 8 7 6 5 3 2 1 1 1 2 3 3 2 2 2 3 3 3 2 2 2 2 2 1 2 3 2 2 3 4 4 5
4 5 5 5 5 5 6 5 6 7 8 8 7 6 5 3 2 1 1 1 1 2 3 3 3 3 2 2 3 2 2 2 2 2 1 1 2 2 3 3 3 4 3 4
4 5 6 7 6 8 7 5 5 7 8 8 7 5 4 3 1 1 1 1 1 2 2 2 3 3 2 2 2 2 2 2 2 1 1 1 1 2 1 3 3 3 3 3
8 6 7 9 8 8 6 7 8 9 8 7 5 4 3 2 1 0 1 1 1 2 2 2 2 2 2 2 2 2 2 2 2 1 1 1 1 1 2 2 2 3 3 3
6 7 8 8 8 9 10 10 10 9 7 6 5 3 2 1 1 1 1 1 2 2 2 2 2 2 2 2 2 2 2 2 1 1 1 1 1 1 2 2 2 1 2 1
Wind_Direction
211 229 225 235 280 299 279 268 259 245 192 254 249 259 251 227 224 218 212 203 197 197 179 170 175 180 179 177 177 179 177 174 174 175 183 186 190 186 184 182 166 191 209 223
218 223 285 277 256 257 253 256 250 218 205 262 259 263 249 219 223 219 219 208 197 187 167 161 170 176 181 185 187 187 186 183 187 183 186 190 186 191 188 179 166 196 199 225
271 353 336 255 246 254 254 260 264 274 248 238 257 251 218 195 197 196 205 205 192 186 173 169 174 180 183 188 194 192 193 190 191 184 176 167 176 189 184 188 187 203 214 211
265 273 261 257 250 258 259 261 255 252 257 256 246 272 225 202 197 196 201 203 196 186 180 179 181 183 187 193 193 193 193 193 189 187 187 186 197 201 193 203 186 193 199 203
271 282 271 269 277 268 294 291 254 253 261 267 244 261 237 191 214 208 197 196 200 192 182 185 189 190 188 189 191 189 184 189 192 194 193 195 202 196 184 188 182 202 189 199
269 264 278 292 288 261 257 245 244 245 247 250 249 267 259 187 224 206 175 189 199 189 184 187 187 187 189 185 183 181 176 182 189 197 197 198 194 191 193 200 195 202 189 192
233 202 194 237 255 201 241 260 254 241 239 257 225 267 298 76 40 311 187 172 182 180 184 187 189 187 186 185 185 175 173 178 183 188 195 199 197 202 198 202 202 214 213 205
289 215 127 270 292 293 265 275 288 294 295 299 258 261 63 73 61 55 92 126 151 173 178 187 189 187 187 184 175 173 180 184 185 190 194 197 202 209 197 200 216 221 232 231
324 319 46 317 300 289 273 275 313 292 285 279 270 253 168 119 89 85 90 108 117 145 167 184 181 183 182 174 172 181 185 189 194 196 190 191 204 218 209 206 219 216 209 224
319 299 296 295 259 247 292 305 282 281 291 287 279 281 335 72 44 52 41 60 87 108 133 148 156 165 166 166 166 175 184 190 194 190 194 194 197 206 206 211 212 217 219 237
317 290 284 272 281 306 274 257 277 286 293 295 300 343 36 21 33 33 22 17 75 118 125 137 145 149 146 151 154 168 183 186 189 193 197 206 206 201 208 211 209 211 224 233
334 300 290 287 296 295 288 298 291 285 288 288 294 331 68 50 41 63 28 19 98 133 132 125 118 123 131 149 160 165 177 184 190 193 191 200 208 208 215 217 215 218 233 243
327 290 279 248 202 199 269 292 294 289 285 285 285 308 91 50 36 53 36 24 142 145 138 129 131 140 156 165 167 170 181 182 190 187 187 199 208 215 224 224 226 231 242 249
289 274 281 294 311 314 300 290 285 283 280 284 288 299 313 338 348 357 6 303 204 176 171 160 153 169 175 181 176 181 190 183 188 192 201 209 214 226 231 223 222 234 246 252
302 281 286 288 289 288 288 289 287 278 281 285 293 302 320 331 331 331 313 249 216 200 201 194 181 171 186 180 178 186 189 181 188 198 210 212 222 233 233 229 232 242 249 257
313 293 292 280 278 280 283 286 283 282 283 280 284 293 332 338 330 322 282 234 231 227 218 206 181 180 201 191 193 186 186 184 190 206 221 220 230 238 243 244 244 251 261 274
295 290 291 286 297 282 276 305 296 286 289 295 303 326 338 326 326 328 298 257 237 235 208 196 184 195 201 197 193 199 192 188 195 214 229 232 237 251 264 272 270 266 272 276
273 283 281 288 291 273 20 10 325 310 316 337 337 338 336 334 335 332 317 305 276 231 193 185 185 190 194 190 194 195 195 193 202 218 228 234 243 259 272 278 283 280 279 281
237 266 279 284 279 278 324 2 337 312 318 10 357 351 344 342 294 160 23 349 320 218 174 182 192 187 189 192 190 199 203 199 210 223 234 240 251 270 274 279 293 290 285 285
213 239 265 278 284 291 24 9 337 293 269 24 354 341 335 319 296 23 15 335 320 143 162 174 176 175 180 187 190 196 193 202 211 225 236 243 265 279 282 290 292 293 286 280
263 244 251 267 270 292 25 354 323 305 2 348 333 331 328 326 343 1 339 339 122 158 159 164 168 171 174 176 181 189 194 205 213 218 220 224 253 267 267 283 289 289 291 294
293 287 273 276 267 325 15 348 350 342 330 322 323 327 331 335 344 344 2 74 134 152 156 155 154 152 160 165 175 189 201 204 200 205 207 231 271 280 288 290 292 294 296 285
280 312 314 306 311 341 325 320 324 316 314 319 321 323 321 314 312 336 38 92 137 151 151 154 151 150 153 169 189 190 192 191 187 195 226 270 292 292 298 293 293 290 288 294
267 285 276 281 284 308 314 320 325 323 318 317 315 311 307 307 304 323 92 113 135 141 145 152 155 154 151 169 182 181 178 174 191 209 235 265 271 286 294 297 306 317 323 324
288 282 278 274 290 304 314 330 328 322 320 319 313 309 305 291 265 242 132 122 127 135 135 144 154 142 145 159 162 160 160 173 192 237 256 260 277 320 305 308 325 323 344 349
262 270 276 285 305 302 304 314 315 312 312 313 306 298 293 273 232 196 154 134 139 138 134 144 148 136 130 135 133 135 151 169 196 217 247 285 304 325 313 339 5 130 218 209